www.pogodaiklimat.ru

Погода и климат >> Архив погоды >> Россия >> Крым >> Почтовое


ПОГОДА в Почтовом

  • Прогноз погоды в Почтовом
  • Монитор погоды в Почтовом

АРХИВ ПОГОДЫ в Почтовом

Время (UTC), дата Ветер
(напр.,м/с)
 
Видим.   Явления Облачность Т
(С)
Тd
(С)
f
(%)
Тe
(С)
Тes
(С)
Комфортность P
(гПа)
Po
(гПа)
Тmin
(С)
Tmax
(С)
R
(мм)
R24
(мм)
S
(см)
12 12.02 Ю 3
{10}
20 км {ливн. осадки} 10/0
[Ac As]
+13.6 +1.0 42 +13 +14 1009.9 989.0
15 12.02 ЮВ 3
{10}
20 км {ливн. осадки} 10/3 600 м
[Sc Ac As]
+11.2 +4.0 61 +10 +10 1010.8 989.7 0.3
18 12.02 Ю 4
{10}
20 км в посл. час ливневой дождь 10/6 600 м
[Sc Ac As]
+11.4 +3.3 57 +9 +9 1011.8 990.7 +13.8 0.3
21 12.02 ЮЗ 4 10 км слаб. ливневой дождь 10/10 600 м
[Cb cap]
+6.4 +4.8 89 +3 +3 1015.8 994.3
00 13.02 Ю 2 20 км {ливн. осадки} 10/10 600 м
[Cb calv]
+5.8 +3.7 86 +3 +3 1017.3 995.7
03 13.02 З 3 20 км 10/5 600 м
[Sc Ac As]
+4.4 +2.7 89 +1 +1 1019.4 997.6 +4.4 5
06 13.02 С 1 20 км 9/3 300 м
[St Ac trans]
+3.2 +1.1 86 +2 +2 1022.6 1000.7 +3.2 5
12 13.02 СВ 2 20 км 10/5 600 м
[Cu Sc Ci sp]
+5.0 -0.3 69 +3 +4 1025.2 1003.3
15 13.02 СВ 1 20 км 10/8 600 м
[Cu Sc Ci sp]
+3.5 -1.2 71 +2 +2 1026.3 1004.3
18 13.02 штиль 0 20 км 9/9 600 м
[Sc]
+1.2 -0.5 88 0 0 1027.9 1005.7 +5.4
21 13.02 штиль 0 20 км 9/0
[Ac und]
+0.2 -0.9 92 -1 -1 1027.6 1005.3
00 14.02 СВ 1 20 км ясно -0.4 -2.8 84 -2 -2 1027.7 1005.4
03 14.02 В 1 20 км ясно -2.8 -3.8 93 -5 -5 1004.7 -2.8
06 14.02 штиль 0 20 км 6/0
[Ac und]
-3.0 -3.4 97 -4 -3 1027.7 1005.1 -4.0
09 14.02 СВ 2 20 км 4/0
[Ci sp]
+4.0 -8.6 39 +2 +8 1025.6 1003.6
12 14.02 С 3 20 км 5/0
[Ci sp]
+6.5 -7.5 36 +4 +7 1023.3 1001.6
15 14.02 СВ 3 20 км 5/0
[Ac As Ci fib]
+3.5 -7.5 44 0 0 1023.4 1001.5
18 14.02 В 3 20 км 10/0
[Ci fib]
-0.8 -4.7 75 -5 -5 1024.1 1001.8 +6.9
21 14.02 штиль 0 50 км 3/0
[Ci fib]
-2.1 -8.4 62 -3 -3 1024.4 1003.0
00 15.02 В 3 50 км 8/0
[Ci fib]
+0.2 -5.2 67 -4 -4 1024.5 1002.3
03 15.02 СВ 4 50 км 10/0
[Ac As Ci sp]
+0.1 -4.6 71 -5 -5 1024.1 1001.9 -2.2
06 15.02 СВ 4 50 км 8/4 600 м
[Sc Ac trans Ci fib]
+0.1 -5.0 69 -5 -5 1025.1 1002.8 -2.2
09 15.02 СВ 4
{12}
50 км 9/0
[Ac lent Ci fib]
+3.4 -7.7 44 -0 +2 1024.9 1002.9
12 15.02 СВ 6
{12}
50 км 6/0
[Ci fib]
+4.8 -6.3 44 0 +2 1024.8 1002.9
15 15.02 СВ 6
{11}
50 км 6/0
[Ac trans Ci fib]
+1.2 -8.0 50 -4 -4 1025.8 1003.6
18 15.02 СВ 2
{10}
50 км 3/0
[Ci fib]
-0.4 -7.9 57 -4 -4 1026.8 1004.5 +5.4
21 15.02 С 1 20 км ясно -1.5 -7.5 64 -3 -3 1026.6 1004.2
00 16.02 В 1 20 км 3/0
[Ci fib]
-4.6 -7.8 78 -7 -7 1027.1 1004.4
03 16.02 В 1 20 км 10/0
[Ac As]
-5.7 -7.6 86 -8 -8 1027.3 1004.5 -6.3
06 16.02 В 1 20 км 9/0
[Ac und]
-3.8 -5.7 87 -6 -6 1027.4 1004.8 -6.3
09 16.02 штиль 0 20 км 9/9 600 м
[Sc]
0.0 -3.0 80 -1 -0 1027.6 1005.3
12 16.02 С 1 20 км 10/10 600 м
[Sc]
+1.9 -2.1 75 0 0 1026.4 1004.3
18 16.02 штиль 0 20 км 10/10 300 м
[St]
+2.5 -0.5 81 +2 +2 1026.7 1004.6 +2.7
21 16.02 штиль 0 20 км 10/10 300 м
[St]
+2.6 -0.1 82 +2 +2 1026.4 1004.3
00 17.02 штиль 0 20 км 10/10 300 м
[St]
+2.7 +0.3 84 +2 +2 1025.8 1003.8
03 17.02 СВ 1 20 км 10/10 300 м
[St]
+2.8 +0.4 84 +1 +1 1025.1 1003.1 +2.5
06 17.02 Ю 1 10 км 10/10 600 м
[St]
+3.6 +1.0 83 +2 +2 1025.1 1003.1 +2.5
09 17.02 Ю 3 10 км 10/10 600 м
[St]
+7.0 +2.9 75 +4 +4 1025.0 1003.3
12 17.02 ЮЗ 4 10 км 4/4 600 м
[St]
+10.3 +3.7 64 +8 +10 1022.6 1001.2
15 17.02 ЮЗ 3 4000 м 3/3 600 м
[St]
+7.4 +4.2 80 +5 +5 1021.7 1000.1
18 17.02 ЮЗ 2 4000 м дымка 3/3 300 м
[St]
+5.4 +4.5 94 +3 +3 1021.3 999.6 +10.6
21 17.02 Ю 1 4000 м дымка 3/3 300 м
[St]
+3.3 +2.6 95 +2 +2 1021.0 999.1
00 18.02 штиль 0 4000 м дымка 3/3 600 м
[St]
+4.2 +3.7 97 +3 +3 1019.8 998.0
03 18.02 В 1 4000 м дымка 10/10 300 м
[St]
+1.0 +0.5 96 -1 -1 1019.2 997.2 +0.5
06 18.02 штиль 0 1000 м в посл. час туман 10/10 600 м
[Sc]
+1.7 +1.4 98 0 0 1020.4 998.4 +0.5 0.1
09 18.02 С 1 10 км 9/9 600 м
[Sc]
+5.2 +2.0 80 +4 +5 1021.2 999.5
12 18.02 СЗ 3 10 км 5/3 600 м
[Cu med, cong Ci fib]
+8.9 -2.8 44 +7 +9 1020.2 998.7
15 18.02 С 1 20 км ясно +7.4 -5.5 39 +7 +7 1021.1 999.5 0.1
18 18.02 штиль 0 20 км ясно +1.4 -1.8 79 0 0 1023.4 1001.3 +9.2
03 19.02 штиль 0 20 км ясно -3.9 -5.7 87 -5 -5 1025.7 1003.1 -3.9

 

Местоположение метеостанции Почтовое (Крым, Россия): широта 44.83 долгота 33.95 высота над уровнем моря 176 м.

В архиве по умолчанию представлена погода в Почтовом за последнюю неделю. Архивные данные за месяц целиком и за предыдущие месяцы, начиная с января 2011 года, Вы можете получить, выбрав интересующий диапазон дат из раскрывающегося списка и нажав кнопку "Ввод!".


*Определитесь, кто Вы:
робот инопланетянин человек

Внимание! Время в таблицах - всемирное. Для получения местного времени необходимо прибавить поправку, которая равна 3 ч.

Смотрите также архив погоды в соседних городах и на ближайших метеорологических станциях:

Погода в Симферополе город (Крым, Россия) (19 км)
Погода в Симферополе (Крым, Россия) (22 км)
Погода на Ангарском Перевале (Крым, Россия) (33 км)
Погода в Алуште (Крым, Россия) (40 км)
Погода в Севастополе (город Севастополь, Россия) (41 км)
Погода на Ай-Петри (Крым, Россия) (41 км)
Погода в Никитском саду (Крым, Россия) (42 км)
Погода в Ялте (Крым, Россия) (43 км)
Погода в Херсонесском Маяке (город Севастополь, Россия) (53 км)
Погода в Белогорске (Крым, Россия) (57 км)

Пояснения к столбцам:

Ветер - указаны скорость ветра в м/с - средняя за 10 мин, порывы в срок и между сроками (в фигурных скобках) и направление, откуда дует ветер: С - северный, СВ - северо-восточный, В - восточный, ЮВ - юго-восточный, Ю - южный, ЮЗ - юго-западный, З - западный, СЗ - северо-западный.
Видимость - горизонтальная дальность видимости в метрах или километрах. При видимости от 1 до 10 км при отсутствии осадков обычно наблюдается дымка, при ухудшении видимости до 1 км и менее - туман. В сухую погоду видимость может ухудшаться дымом, пылью или мглою.
Явления - указаны атмосферные явления, наблюдавшиеся в срок или в последний час перед сроком; фигурными скобками обозначены явления, наблюдавшиеся между сроками (за 1-3 часа до срока); квадратными скобками обозначены град или гололедные отложения с указанием их диаметра в мм.
Облачность - указаны через наклонную черту общая и нижняя облачность в баллах и высота нижней границы облаков в метрах; квадратными скобками обозначены формы облаков: Ci - перистые, Cs - перисто-слоистые, Cc - перисто-кучевые, Ac - высококучевые, As - высокослоистые, Sc - слоисто-кучевые, Ns - слоисто-дождевые, Cu - кучевые, Cb - кучево-дождевые. Подробнее классификацию облаков см. в Атласе облаков (PDF).
T - Температура воздуха - температура, измеренная на высоте 2 м над землей.
Td - Температура точки росы - температура, при понижении до которой содержащийся в воздухе водяной пар достигнет насыщения.
f - Относительная влажность воздуха - влажноcть воздуха, измеренная на высоте 2 м над землей.
Te - Эффективная температура - температура, которую ощущает одетый по сезону человек в тени. Характеристика душности погоды. При расчете учитывается влияние влажности воздуха и скорости ветра на теплоощущения человека.
Tes - Эффективная температура на солнце - температура, которую ощущает человек, с поправкой на солнечный нагрев. Характеристика знойности погоды. Зависит от высоты солнца над горизонтом, облачности и скорости ветра. Ночью, в пасмурную погоду, а также при ветре 12 м/с и более поправка равна нулю.
P - Атмосферное давление - приведенное к уровню моря атмосферное давление.
Po - Атмосферное давление - измеренное на уровне метеостанции атмосферное давление.
Tmin - Минимальная температура - минимум температуры воздуха на высоте 2 м над землей.
Tmax - Максимальная температура - максимум температуры воздуха на высоте 2 м над землей.
R - Количество осадков - Количество выпавших осадков за период времени, мм. При наведении курсора мыши на число - период времени, за который выпало указанное количество осадков.
R24 - Количество осадков - Количество выпавших осадков за 24 часа, мм.
S - Снежный покров - Высота снежного покрова, см. При наведении курсора мыши на число - состояние снежного покрова и степень покрытия местности в баллах.